FW4751 Weather Reports


time (UTC)temp
C
wind
direction
speed
KPH
gust
KPH
rain 1hr
cm
rain 24hr
cm
rain mn
cm
humidity
%
barometer
mb
20260903033530 18 0.0 1.6 0.00 0.00 0.00 68 1016.5
20260903033005 18 0.0 3.2 0.00 0.00 0.00 68 1016.3
20260903032504 18 0.0 1.6 0.00 0.00 0.00 68 1016.4
20260903032005 18 0.0 1.6 0.00 0.00 0.00 67 1016.3
20260903031504 18 0.0 1.6 0.00 0.00 0.00 67 1016.5
20260903031009 19 0 1.6 4.8 0.00 0.00 0.00 66 1016.3
20260903030509 19 338 1.6 3.2 0.00 0.00 0.00 66 1016.3
20260903030005 19 338 1.6 6.4 0.00 0.00 0.00 65 1016.3
20260903025510 20 338 1.6 4.8 0.00 0.00 0.00 64 1016.1
20260903025045 20 0 1.6 3.2 0.00 0.00 0.00 63 1016.1
20260903024509 20 338 1.6 3.2 0.00 0.00 0.00 62 1016.3
20260903024009 20 315 1.6 3.2 0.00 0.00 0.00 61 1016.1
20260903023509 21 338 1.6 4.8 0.00 0.00 0.00 60 1016.2
20260903023004 21 338 1.6 4.8 0.00 0.00 0.00 60 1016.1
20260903022509 21 338 1.6 4.8 0.00 0.00 0.00 58 1016.0
20260903022009 22 315 1.6 6.4 0.00 0.00 0.00 56 1016.0
20260903021509 22 315 1.6 3.2 0.00 0.00 0.00 54 1016.0
20260903021009 22 315 1.6 4.8 0.00 0.00 0.00 54 1016.1
20260903020529 22 0.0 1.6 0.00 0.00 0.00 53 1016.0
20260903020009 23 315 1.6 6.4 0.00 0.00 0.00 51 1016.2
20260903015529 23 315 1.6 4.8 0.00 0.00 0.00 51 1016.1
20260903015004 23 338 1.6 6.4 0.00 0.00 0.00 48 1016.0
20260903014509 23 315 1.6 4.8 0.00 0.00 0.00 49 1016.1
20260903014009 23 315 1.6 6.4 0.00 0.00 0.00 51 1016.2
20260903013505 23 248 1.6 3.2 0.00 0.00 0.00 48 1016.2
20260903013009 23 315 1.6 6.4 0.00 0.00 0.00 48 1016.1
20260903012509 23 315 3.2 9.7 0.00 0.00 0.00 48 1016.0
20260903012004 23 315 3.2 8.0 0.00 0.00 0.00 48 1016.0
20260903011529 23 338 3.2 8.0 0.00 0.00 0.00 51 1015.9
20260903011004 23 315 1.6 6.4 0.00 0.00 0.00 53 1016.0
20260903010544 23 315 3.2 6.4 0.00 0.00 0.00 53 1015.9
20260903010004 23 315 1.6 6.4 0.00 0.00 0.00 54 1016.1
20260903005504 23 338 3.2 8.0 0.00 0.00 0.00 54 1015.9
20260903005004 23 338 3.2 9.7 0.00 0.00 0.00 54 1016.0
20260903004504 23 338 3.2 8.0 0.00 0.00 0.00 54 1016.1
20260903004004 23 338 4.8 11.3 0.00 0.00 0.00 54 1015.9
20260903003504 24 0 3.2 8.0 0.00 0.00 0.00 53 1016.0
20260903003004 24 338 3.2 9.7 0.00 0.00 0.00 53 1016.1
20260903002524 25 0 1.6 8.0 0.00 0.00 0.00 53 1016.0
20260903002004 25 315 3.2 9.7 0.00 0.00 0.00 53 1016.1
20260903001544 25 315 3.2 9.7 0.00 0.00 0.00 52 1016.2
20260903001004 25 315 3.2 9.7 0.00 0.00 0.00 52 1016.2
20260903000524 25 293 3.2 8.0 0.00 0.00 0.00 49 1016.1
20260903000004 25 315 3.2 11.3 0.00 0.00 0.00 50 1016.2
20260902235504 25 315 1.6 6.4 0.00 0.00 0.00 51 1016.1
20260902235004 25 315 3.2 9.7 0.00 0.00 0.00 51 1016.2
20260902234504 25 315 3.2 8.0 0.00 0.00 0.00 52 1016.2
20260902234009 25 338 3.2 9.7 0.00 0.00 0.00 52 1016.3
20260902233504 26 0 3.2 9.7 0.00 0.00 0.00 52 1016.1
20260902233024 26 315 3.2 9.7 0.00 0.00 0.00 51 1016.1
20260902232524 26 315 3.2 8.0 0.00 0.00 0.00 53 1016.1
20260902232024 26 315 3.2 9.7 0.00 0.00 0.00 53 1016.0
20260902231509 26 315 3.2 8.0 0.00 0.00 0.00 53 1016.2
20260902231004 25 315 4.8 12.9 0.00 0.00 0.00 53 1016.1
20260902230504 26 315 4.8 11.3 0.00 0.00 0.00 52 1016.1
20260902230024 26 315 4.8 11.3 0.00 0.00 0.00 52 1016.1
20260902225504 26 315 4.8 12.9 0.00 0.00 0.00 52 1016.2
20260902225009 26 315 3.2 11.3 0.00 0.00 0.00 51 1016.2
20260902224504 26 225 4.8 14.5 0.00 0.00 0.00 52 1016.2
20260902224004 26 315 3.2 11.3 0.00 0.00 0.00 52 1016.3
20260902223529 26 315 3.2 12.9 0.00 0.00 0.00 52 1016.3
20260902223009 26 315 1.6 8.0 0.00 0.00 0.00 53 1016.5
20260902222504 26 315 4.8 9.7 0.00 0.00 0.00 53 1016.4
20260902222024 26 315 4.8 9.7 0.00 0.00 0.00 53 1016.6
20260902221504 26 315 3.2 8.0 0.00 0.00 0.00 53 1016.6
20260902221024 26 315 3.2 9.7 0.00 0.00 0.00 53 1016.6
20260902220529 26 248 3.2 12.9 0.00 0.00 0.00 53 1016.7
20260902220024 26 225 3.2 9.7 0.00 0.00 0.00 53 1016.7
20260902215504 26 315 3.2 11.3 0.00 0.00 0.00 54 1016.8
20260902215008 26 315 3.2 12.9 0.00 0.00 0.00 54 1016.8
20260902214508 26 315 3.2 9.7 0.00 0.00 0.00 54 1017.0
20260902214004 26 315 3.2 12.9 0.00 0.00 0.00 54 1017.0
20260902213508 26 248 3.2 6.4 0.00 0.00 0.00 55 1016.9
20260902213004 26 315 3.2 14.5 0.00 0.00 0.00 56 1016.9
20260902212504 26 315 3.2 11.3 0.00 0.00 0.00 56 1017.0
20260902212003 25 315 3.2 12.9 0.00 0.00 0.00 56 1017.0
20260902211504 25 225 3.2 9.7 0.00 0.00 0.00 57 1017.0
20260902211009 25 225 4.8 14.5 0.00 0.00 0.00 56 1017.1
20260902210504 25 225 4.8 14.5 0.00 0.00 0.00 56 1017.0
20260902210004 26 225 4.8 14.5 0.00 0.00 0.00 55 1017.0
20260902205509 26 248 3.2 12.9 0.00 0.00 0.00 56 1017.2
20260902205004 26 225 4.8 12.9 0.00 0.00 0.00 56 1017.1
20260902204509 26 225 4.8 12.9 0.00 0.00 0.00 55 1017.2
20260902204004 25 225 3.2 12.9 0.00 0.00 0.00 56 1017.1
20260902203505 25 225 3.2 9.7 0.00 0.00 0.00 56 1017.2
20260902203009 25 225 3.2 6.4 0.00 0.00 0.00 56 1017.3
20260902202504 25 225 4.8 11.3 0.00 0.00 0.00 57 1017.3
20260902202003 25 315 1.6 6.4 0.00 0.00 0.00 56 1017.3
20260902201508 25 315 3.2 8.0 0.00 0.00 0.00 55 1017.3
20260902201003 25 225 3.2 9.7 0.00 0.00 0.00 53 1017.2
20260902200503 26 225 1.6 6.4 0.00 0.00 0.00 54 1017.2
20260902200008 26 225 3.2 8.0 0.00 0.00 0.00 53 1017.5
20260902195508 26 315 3.2 6.4 0.00 0.00 0.00 53 1017.6
20260902195008 26 315 3.2 9.7 0.00 0.00 0.00 52 1017.8
20260902194503 26 270 3.2 12.9 0.00 0.00 0.00 51 1017.8
20260902194024 26 225 3.2 12.9 0.00 0.00 0.00 51 1017.8
20260902193508 26 225 3.2 9.7 0.00 0.00 0.00 50 1017.6
20260902193008 26 270 1.6 8.0 0.00 0.00 0.00 51 1017.7
20260902192529 25 248 3.2 9.7 0.00 0.00 0.00 52 1017.8
20260902192006 25 225 3.2 6.4 0.00 0.00 0.00 54 1017.7
20260902191509 25 248 3.2 8.0 0.00 0.00 0.00 54 1017.7
20260902191029 25 225 4.8 11.3 0.00 0.00 0.00 55 1017.7
20260902190508 25 225 3.2 9.7 0.00 0.00 0.00 53 1017.6
20260902190009 25 270 1.6 6.4 0.00 0.00 0.00 54 1017.8
20260902185528 25 225 3.2 6.4 0.00 0.00 0.00 54 1017.6
20260902185008 25 225 1.6 8.0 0.00 0.00 0.00 53 1017.7
20260902184508 26 225 3.2 8.0 0.00 0.00 0.00 52 1017.7
20260902184008 25 225 3.2 8.0 0.00 0.00 0.00 54 1017.7
20260902183543 25 270 3.2 9.7 0.00 0.00 0.00 55 1017.7
20260902183006 25 225 3.2 8.0 0.00 0.00 0.00 54 1017.8
20260902182503 25 225 3.2 9.7 0.00 0.00 0.00 55 1017.7
20260902182004 25 225 3.2 8.0 0.00 0.00 0.00 55 1017.7
20260902181508 25 225 1.6 6.4 0.00 0.00 0.00 55 1017.9
20260902181008 25 225 1.6 6.4 0.00 0.00 0.00 55 1017.7
20260902180508 25 270 1.6 6.4 0.00 0.00 0.00 55 1017.7
20260902180005 25 225 3.2 8.0 0.00 0.00 0.00 56 1017.7
20260902175508 24 315 1.6 4.8 0.00 0.00 0.00 57 1017.6
20260902175003 24 315 1.6 3.2 0.00 0.00 0.00 56 1017.7
20260902174508 25 338 1.6 6.4 0.00 0.00 0.00 55 1017.6
20260902174008 25 158 1.6 6.4 0.00 0.00 0.00 54 1017.7
20260902173528 25 203 1.6 4.8 0.00 0.00 0.00 55 1017.6
20260902173028 25 180 3.2 11.3 0.00 0.00 0.00 54 1017.6
20260902172508 25 0 3.2 11.3 0.00 0.00 0.00 55 1017.5
20260902172008 25 203 1.6 8.0 0.00 0.00 0.00 55 1017.6
20260902171503 25 113 3.2 8.0 0.00 0.00 0.00 55 1017.5
20260902171008 24 135 1.6 4.8 0.00 0.00 0.00 55 1017.6
20260902170508 24 158 3.2 8.0 0.00 0.00 0.00 56 1017.5
20260902170008 23 180 1.6 4.8 0.00 0.00 0.00 58 1017.6
20260902165508 23 135 1.6 4.8 0.00 0.00 0.00 59 1017.6
20260902165008 23 158 1.6 4.8 0.00 0.00 0.00 59 1017.6
20260902164503 22 135 1.6 4.8 0.00 0.00 0.00 61 1017.6
20260902164003 22 270 1.6 4.8 0.00 0.00 0.00 61 1017.6
20260902163508 22 135 1.6 3.2 0.00 0.00 0.00 63 1017.5
20260902163008 21 135 1.6 4.8 0.00 0.00 0.00 64 1017.3
20260902162508 20 135 1.6 6.4 0.00 0.00 0.00 65 1017.4
20260902162008 20 135 1.6 4.8 0.00 0.00 0.00 66 1017.5
20260902161508 20 113 1.6 6.4 0.00 0.00 0.00 68 1017.5
20260902161003 19 180 1.6 4.8 0.00 0.00 0.00 69 1017.5
20260902160510 18 180 1.6 3.2 0.00 0.00 0.00 71 1017.6
20260902160007 18 180 1.6 4.8 0.00 0.00 0.00 72 1017.6
20260902155505 17 135 1.6 3.2 0.00 0.00 0.00 73 1017.8
20260902155030 17 180 1.6 3.2 0.00 0.00 0.00 75 1017.8
20260902154510 17 180 1.6 3.2 0.00 0.00 0.00 75 1017.7
20260902154008 16 203 1.6 3.2 0.00 0.00 0.00 75 1017.7
20260902153525 16 203 1.6 4.8 0.00 0.00 0.00 76 1017.6
20260902153005 16 203 1.6 3.2 0.00 0.00 0.00 77 1017.6
20260902152510 16 158 1.6 3.2 0.00 0.00 0.00 78 1017.6
20260902152010 15 270 1.6 3.2 0.00 0.00 0.00 78 1017.6
20260902151510 15 135 1.6 3.2 0.00 0.00 0.00 78 1017.5
20260902151025 15 0.0 3.2 0.00 0.00 0.00 78 1017.4
20260902150530 15 0.0 1.6 0.00 0.00 0.00 78 1017.4
20260902150010 15 0.0 1.6 0.00 0.00 0.00 78 1017.3
20260902145510 15 0.0 3.2 0.00 0.00 0.00 78 1017.2
20260902145009 15 0.0 1.6 0.00 0.00 0.00 78 1017.1
20260902144505 15 0.0 1.6 0.00 0.00 0.00 78 1017.1
20260902144005 15 0.0 1.6 0.00 0.00 0.00 78 1017.2
20260902143510 15 0.0 1.6 0.00 0.00 0.00 78 1017.5
20260902143005 15 0.0 1.6 0.00 0.00 0.00 78 1017.3
20260902142510 15 0.0 1.6 0.00 0.00 0.00 78 1017.3
20260902142010 15 0.0 3.2 0.00 0.00 0.00 78 1017.2
20260902141510 15 0.0 3.2 0.00 0.00 0.00 78 1017.2
20260902141010 15 0.0 3.2 0.00 0.00 0.00 78 1017.1
20260902140509 15 0.0 1.6 0.00 0.00 0.00 78 1017.1
20260902140029 15 0.0 1.6 0.00 0.00 0.00 78 1017.0
20260902135504 15 0.0 1.6 0.00 0.00 0.00 78 1017.0
20260902135030 15 0.0 1.6 0.00 0.00 0.00 78 1016.9
20260902134504 15 0.0 1.6 0.00 0.00 0.00 78 1016.9
20260902133504 15 0.0 1.6 0.00 0.00 0.00 78 1016.8
20260902133006 15 0.0 3.2 0.00 0.00 0.00 78 1016.6
20260902132510 15 0.0 1.6 0.00 0.00 0.00 78 1016.8
20260902132004 15 0.0 3.2 0.00 0.00 0.00 78 1016.8
20260902131510 15 0.0 1.6 0.00 0.00 0.00 78 1016.9
20260902131004 15 0.0 1.6 0.00 0.00 0.00 78 1016.9
20260902130505 15 0.0 1.6 0.00 0.00 0.00 78 1016.9
20260902130029 15 0.0 1.6 0.00 0.00 0.00 78 1016.7
20260902125505 14 158 1.6 3.2 0.00 0.00 0.00 79 1016.8
20260902125009 14 180 1.6 3.2 0.00 0.00 0.00 79 1016.8
20260902124605 14 0.0 3.2 0.00 0.00 0.00 79 1016.8
20260902124004 14 0.0 3.2 0.00 0.00 0.00 79 1016.9
20260902123509 14 0.0 3.2 0.00 0.00 0.00 80 1016.9
20260902123005 14 203 1.6 3.2 0.00 0.00 0.00 80 1017.0
20260902122509 14 135 1.6 3.2 0.00 0.00 0.00 80 1016.8
20260902122005 14 0.0 3.2 0.00 0.00 0.00 80 1016.9
20260902121509 14 0.0 1.6 0.00 0.00 0.00 80 1016.7
20260902121029 13 0.0 1.6 0.00 0.00 0.00 80 1016.7
20260902120510 13 0.0 1.6 0.00 0.00 0.00 80 1016.7
20260902120044 13 0.0 3.2 0.00 0.00 0.00 80 1016.7
20260902115509 13 0.0 3.2 0.00 0.00 0.00 81 1016.6
20260902115009 13 0.0 3.2 0.00 0.00 0.00 81 1016.7
20260902114504 13 0.0 1.6 0.00 0.00 0.00 81 1016.6
20260902114004 13 0.0 1.6 0.00 0.00 0.00 82 1016.7
20260902113504 13 158 1.6 4.8 0.00 0.00 0.00 82 1016.6
20260902113004 13 135 1.6 3.2 0.00 0.00 0.00 82 1016.8
20260902112509 13 0.0 3.2 0.00 0.00 0.00 83 1016.9
20260902112030 13 158 1.6 3.2 0.00 0.00 0.00 83 1016.9
20260902111510 13 135 1.6 4.8 0.00 0.00 0.00 83 1017.0
20260902111029 13 180 1.6 3.2 0.00 0.00 0.00 83 1017.1
20260902110509 13 135 1.6 3.2 0.00 0.00 0.00 83 1017.0
20260902110007 13 135 1.6 3.2 0.00 0.00 0.00 83 1017.1
20260902105504 13 0.0 1.6 0.00 0.00 0.00 83 1017.2
20260902105004 13 0.0 1.6 0.00 0.00 0.00 83 1017.2
20260902104504 13 0.0 1.6 0.00 0.00 0.00 83 1017.2
20260902104010 13 0.0 1.6 0.00 0.00 0.00 83 1017.2
20260902103509 13 0.0 1.6 0.00 0.00 0.00 83 1017.2
20260902103010 13 0.0 1.6 0.00 0.00 0.00 83 1017.0
20260902102524 13 0.0 1.6 0.00 0.00 0.00 83 1017.1
20260902102009 13 0.0 1.6 0.00 0.00 0.00 83 1017.0
20260902101504 13 0.0 1.6 0.00 0.00 0.00 83 1016.9
20260902101005 13 0.0 1.6 0.00 0.00 0.00 83 1016.9
20260902100504 13 0.0 0.0 0.00 0.00 0.00 83 1016.9
20260902100024 13 0.0 1.6 0.00 0.00 0.00 83 1017.0
20260902095504 13 0.0 1.6 0.00 0.00 0.00 83 1017.0
20260902095004 13 0.0 1.6 0.00 0.00 0.00 83 1017.0
20260902094504 13 0.0 1.6 0.00 0.00 0.00 83 1017.1
20260902094025 13 0.0 0.0 0.00 0.00 0.00 83 1017.1
20260902093529 13 0.0 1.6 0.00 0.00 0.00 83 1017.0
20260902093024 13 0.0 1.6 0.00 0.00 0.00 83 1017.0
20260902092504 13 0.0 1.6 0.00 0.00 0.00 83 1016.9
20260902092024 13 0.0 0.0 0.00 0.00 0.00 83 1017.0
20260902091509 13 0.0 1.6 0.00 0.00 0.00 83 1017.0
20260902091009 13 0.0 1.6 0.00 0.00 0.00 83 1017.0
20260902090509 13 0.0 1.6 0.00 0.00 0.00 83 1017.0
20260902090005 13 0.0 1.6 0.00 0.00 0.00 83 1017.0
20260902085504 13 0.0 1.6 0.00 0.00 0.00 83 1016.9
20260902085004 13 0.0 1.6 0.00 0.00 0.00 82 1017.0
20260902084504 13 0.0 1.6 0.00 0.00 0.00 82 1017.1
20260902084004 13 0.0 1.6 0.00 0.00 0.00 82 1017.2
20260902083504 13 0.0 1.6 0.00 0.00 0.00 82 1017.1
20260902083024 13 0.0 1.6 0.00 0.00 0.00 82 1017.3
20260902082525 13 0.0 1.6 0.00 0.00 0.00 82 1017.1
20260902082024 13 0.0 1.6 0.00 0.00 0.00 82 1017.0
20260902081504 13 0.0 1.6 0.00 0.00 0.00 82 1017.0
20260902081004 13 0.0 1.6 0.00 0.00 0.00 82 1016.9
20260902080524 13 0.0 1.6 0.00 0.00 0.00 81 1017.1
20260902080004 13 0.0 0.0 0.00 0.00 0.00 81 1017.0
20260902075504 13 0.0 1.6 0.00 0.00 0.00 81 1017.1
20260902075024 14 0.0 1.6 0.00 0.00 0.00 81 1017.1
20260902074504 14 0.0 1.6 0.00 0.00 0.00 81 1017.1
20260902074044 14 0.0 1.6 0.00 0.00 0.00 80 1017.0
20260902073504 14 0.0 1.6 0.00 0.00 0.00 80 1017.0
20260902073009 14 0.0 1.6 0.00 0.00 0.00 80 1017.0
20260902072504 14 0.0 1.6 0.00 0.00 0.00 80 1017.1
20260902072024 14 0.0 1.6 0.00 0.00 0.00 80 1017.1
20260902071504 14 0.0 1.6 0.00 0.00 0.00 80 1017.1
20260902071024 14 0.0 0.0 0.00 0.00 0.00 80 1017.2
20260902070505 15 0.0 1.6 0.00 0.00 0.00 79 1017.1
20260902070006 15 0.0 1.6 0.00 0.00 0.00 79 1017.0
20260902065544 15 0.0 1.6 0.00 0.00 0.00 79 1017.2
20260902065004 15 0.0 1.6 0.00 0.00 0.00 79 1017.2
20260902064503 15 0.0 1.6 0.00 0.00 0.00 79 1017.1
20260902064009 15 0.0 1.6 0.00 0.00 0.00 79 1017.0
20260902063504 15 0.0 1.6 0.00 0.00 0.00 78 1017.1
20260902063008 15 0.0 1.6 0.00 0.00 0.00 78 1017.0
20260902062504 15 0.0 1.6 0.00 0.00 0.00 78 1017.0
20260902062004 15 0.0 1.6 0.00 0.00 0.00 78 1017.0
20260902061523 15 0.0 1.6 0.00 0.00 0.00 78 1016.9
20260902061006 15 0.0 1.6 0.00 0.00 0.00 77 1016.9
20260902060503 15 0.0 1.6 0.00 0.00 0.00 77 1016.9
20260902060003 15 0.0 1.6 0.00 0.00 0.00 76 1016.7
20260902055503 16 0.0 1.6 0.00 0.00 0.00 76 1016.8
20260902055003 16 0.0 1.6 0.00 0.00 0.00 76 1016.8
20260902054504 16 0.0 1.6 0.00 0.00 0.00 76 1016.9
20260902054008 16 0.0 1.6 0.00 0.00 0.00 76 1016.9
20260902053503 16 0.0 1.6 0.00 0.00 0.00 75 1017.0
20260902053008 16 0.0 1.6 0.00 0.00 0.00 75 1017.1
20260902052503 16 0.0 1.6 0.00 0.00 0.00 75 1017.2
20260902052008 16 0.0 0.0 0.00 0.00 0.00 75 1017.3
20260902051503 16 0.0 1.6 0.00 0.00 0.00 75 1017.3
20260902051028 16 0.0 1.6 0.00 0.00 0.00 75 1017.5
20260902050528 16 0.0 3.2 0.00 0.00 0.00 74 1017.4
20260902050009 16 0.0 3.2 0.00 0.00 0.00 74 1017.4
20260902045509 16 0.0 1.6 0.00 0.00 0.00 74 1017.3
20260902045008 17 0.0 1.6 0.00 0.00 0.00 73 1017.2
20260902044503 17 0.0 1.6 0.00 0.00 0.00 74 1017.2
20260902044008 17 315 1.6 3.2 0.00 0.00 0.00 74 1017.3
20260902043504 17 0.0 3.2 0.00 0.00 0.00 73 1017.1
20260902043004 17 0.0 1.6 0.00 0.00 0.00 73 1017.2
20260902042508 17 315 1.6 6.4 0.00 0.00 0.00 73 1017.2
20260902042008 17 315 1.6 3.2 0.00 0.00 0.00 73 1017.2
20260902041508 17 315 1.6 4.8 0.00 0.00 0.00 73 1017.1
20260902041024 17 315 1.6 6.4 0.00 0.00 0.00 73 1017.0
20260902040503 17 315 1.6 11.3 0.00 0.00 0.00 73 1016.8
20260902040008 17 315 1.6 4.8 0.00 0.00 0.00 73 1016.9
20260902035508 17 248 1.6 6.4 0.00 0.00 0.00 72 1016.8
20260902035008 17 270 1.6 4.8 0.00 0.00 0.00 72 1016.7
20260902034503 17 293 1.6 4.8 0.00 0.00 0.00 72 1016.7
20260902034003 17 248 3.2 8.0 0.00 0.00 0.00 72 1016.7